FW0663 Weather Reports


Display with metric or nautical units.
time (UTC)temp
F
wind
direction
speed
MPH
gust
MPH
rain 1hr
in
rain 24hr
in
rain mn
in
humidity
%
barometer
mb
20260510094602 45 119 0.0 2.0 0.00 0.00 0.00 64 1016.6
20260510093059 46 105 0.0 3.0 0.00 0.00 0.00 62 1016.6
20260510091555 46 108 1.0 2.0 0.00 0.00 0.00 60 1016.6
20260510090056 47 115 0.0 2.0 0.00 0.00 0.00 59 1016.8
20260510084558 47 103 0.0 2.0 0.00 0.00 0.00 58 1016.9
20260510083057 48 107 0.0 2.0 0.00 0.00 0.00 58 1016.8
20260510081551 47 111 0.0 1.0 0.00 0.00 0.00 59 1016.8
20260510080049 47 134 0.0 2.0 0.00 0.00 0.00 59 1016.9
20260510074601 48 96 1.0 3.0 0.00 0.00 0.00 58 1017.0
20260510073047 49 111 0.0 3.0 0.00 0.00 0.00 57 1017.0
20260510071553 50 117 1.0 2.0 0.00 0.00 0.00 55 1017.0
20260510070041 51 108 0.0 2.0 0.00 0.00 0.00 54 1016.9
20260510064549 50 102 0.0 1.0 0.00 0.00 0.00 53 1016.8
20260510063038 50 107 1.0 2.0 0.00 0.00 0.00 56 1016.8
20260510061539 50 103 1.0 2.0 0.00 0.00 0.00 58 1016.7
20260510060041 50 88 0.0 2.0 0.00 0.00 0.00 57 1016.7
20260510054536 50 104 0.0 2.0 0.00 0.00 0.00 59 1016.7
20260510053041 52 109 1.0 2.0 0.00 0.00 0.00 61 1016.5
20260510051542 53 78 0.0 3.0 0.00 0.00 0.00 52 1016.4
20260510050035 55 83 1.0 3.0 0.00 0.00 0.00 50 1016.3
20260510044539 56 109 0.0 5.0 0.00 0.00 0.00 46 1016.4
20260510043044 59 78 0.0 2.0 0.00 0.00 0.00 46 1016.3
20260510041544 61 195 0.0 2.0 0.00 0.00 0.00 35 1016.2
20260510040035 63 219 0.0 2.0 0.00 0.00 0.00 34 1015.8
20260510034533 65 302 0.0 0.0 0.00 0.00 0.00 34 1015.6
20260510033034 68 9 0.0 1.0 0.00 0.00 0.00 33 1015.5
20260510031533 69 74 0.0 2.0 0.00 0.00 0.00 32 1015.4
20260510030032 72 100 1.0 3.0 0.00 0.00 0.00 29 1015.3
20260510024531 76 330 0.0 5.0 0.00 0.00 0.00 21 1015.2
20260510023031 78 330 0.0 6.0 0.00 0.00 0.00 19 1015.1
20260510021533 79 331 2.0 5.0 0.00 0.00 0.00 15 1015.0
20260510020029 79 320 2.0 6.0 0.00 0.00 0.00 14 1015.2
20260510014529 80 317 5.0 9.0 0.00 0.00 0.00 13 1015.3
20260510013028 80 339 4.0 8.0 0.00 0.00 0.00 12 1015.4
20260510011534 81 325 3.0 7.0 0.00 0.00 0.00 12 1015.4
20260510010034 80 333 1.0 8.0 0.00 0.00 0.00 13 1015.5
20260510004522 80 286 4.0 10.0 0.00 0.00 0.00 13 1015.8
20260510003020 80 308 3.0 9.0 0.00 0.00 0.00 13 1016.0
20260510001523 80 16 4.0 8.0 0.00 0.00 0.00 14 1016.1
20260510000017 80 346 5.0 8.0 0.00 0.00 0.00 14 1016.3
20260509234514 79 276 4.0 12.0 0.00 0.00 0.00 14 1016.7
20260509233013 80 330 5.0 12.0 0.00 0.00 0.00 13 1016.6
20260509231513 81 334 2.0 5.0 0.00 0.00 0.00 14 1016.8
20260509230007 80 140 2.0 5.0 0.00 0.00 0.00 15 1017.0
20260509224507 79 104 2.0 5.0 0.00 0.00 0.00 15 1017.2
20260509223004 79 128 3.0 6.0 0.00 0.00 0.00 14 1017.4
20260509221504 79 325 1.0 5.0 0.00 0.00 0.00 16 1017.7
20260509220107 79 104 3.0 6.0 0.00 0.00 0.00 17 1017.9
20260509214556 79 360 2.0 8.0 0.00 0.00 0.00 16 1018.3
20260509213053 78 327 4.0 11.0 0.00 0.00 0.00 16 1018.4
20260509211552 78 325 4.0 9.0 0.00 0.00 0.00 17 1018.5
20260509210057 77 310 5.0 9.0 0.00 0.00 0.00 18 1018.8
20260509204548 77 346 2.0 7.0 0.00 0.00 0.00 18 1018.9
20260509203050 76 28 2.0 8.0 0.00 0.00 0.00 19 1019.0
20260509201543 75 128 3.0 7.0 0.00 0.00 0.00 19 1019.1
20260509200044 74 329 2.0 5.0 0.00 0.00 0.00 19 1019.4
20260509194538 74 342 4.0 6.0 0.00 0.00 0.00 19 1019.7
20260509193041 74 30 2.0 7.0 0.00 0.00 0.00 22 1019.9
20260509191533 73 136 1.0 5.0 0.00 0.00 0.00 25 1020.1
20260509190042 72 341 1.0 5.0 0.00 0.00 0.00 25 1020.4
20260509184533 71 321 1.0 5.0 0.00 0.00 0.00 27 1020.6
20260509183029 70 121 2.0 5.0 0.00 0.00 0.00 30 1020.9
20260509181520 69 103 1.0 4.0 0.00 0.00 0.00 32 1021.0
20260509180015 67 355 1.0 4.0 0.00 0.00 0.00 33 1021.1
20260509174523 66 59 2.0 5.0 0.00 0.00 0.00 35 1021.2
20260509173013 65 34 1.0 6.0 0.00 0.00 0.00 37 1021.4
20260509171508 65 126 0.0 2.0 0.00 0.00 0.00 40 1021.8
20260509170011 63 5 2.0 5.0 0.00 0.00 0.00 43 1021.9
20260509164502 61 355 2.0 4.0 0.00 0.00 0.00 44 1022.0
20260509163102 60 71 0.0 2.0 0.00 0.00 0.00 49 1022.0
20260509161556 58 73 1.0 3.0 0.00 0.00 0.00 51 1022.2
20260509160050 57 63 0.0 2.0 0.00 0.00 0.00 54 1022.2
20260509154547 55 66 0.0 4.0 0.00 0.00 0.00 56 1022.6
20260509153045 54 86 2.0 7.0 0.00 0.00 0.00 57 1022.6
20260509151540 52 56 0.0 5.0 0.00 0.00 0.00 62 1022.6
20260509150035 49 73 1.0 6.0 0.00 0.00 0.00 65 1022.8
20260509144530 47 94 3.0 7.0 0.00 0.00 0.00 69 1022.8
20260509143028 46 66 2.0 6.0 0.00 0.00 0.00 70 1022.8
20260509141533 44 65 1.0 4.0 0.00 0.00 0.00 74 1022.8
20260509140030 43 73 2.0 5.0 0.00 0.00 0.00 76 1023.0
20260509134517 41 114 0.0 4.0 0.00 0.00 0.00 78 1023.1
20260509133016 40 76 1.0 5.0 0.00 0.00 0.00 80 1022.9
20260509131517 39 98 1.0 5.0 0.00 0.00 0.00 82 1022.7
20260509130132 38 115 1.0 4.0 0.00 0.00 0.00 84 1022.4
20260509124520 37 75 1.0 5.0 0.00 0.00 0.00 83 1022.4
20260509123019 36 115 0.0 3.0 0.00 0.00 0.00 84 1022.5
20260509121514 37 115 0.0 1.0 0.00 0.00 0.00 84 1022.6
20260509120008 37 109 0.0 2.0 0.00 0.00 0.00 83 1022.6
20260509114505 37 131 0.0 2.0 0.00 0.00 0.00 83 1022.6
20260509113004 38 106 0.0 2.0 0.00 0.00 0.00 83 1022.5
20260509111504 38 113 0.0 2.0 0.00 0.00 0.00 83 1022.5
20260509110006 38 115 1.0 2.0 0.00 0.00 0.00 82 1022.6
20260509104502 38 127 0.0 2.0 0.00 0.00 0.00 82 1022.6
20260509103003 37 116 0.0 2.0 0.00 0.00 0.00 82 1022.6
20260509101603 37 118 1.0 2.0 0.00 0.00 0.00 81 1022.6
20260509100058 38 126 1.0 5.0 0.00 0.00 0.00 78 1022.6